Total_Precipitation_Accumulation
0.17 0.27 0.43 0.43 0.47 0.47 0.35 0.25 0.25 0.27 0.23 0.25 0.27 0.24 0.22 0.22 0.22 0.19 0.17 0.15 0.14 0.13 0.14 0.14 0.13 0.17 0.20 0.25 0.31 0.37 0.54 0.70 0.86 0.98 1.12 1.38 1.54 1.64 1.62 1.63 1.70 1.62 1.43 1.51
0.25 0.26 0.25 0.31 0.35 0.33 0.28 0.24 0.23 0.22 0.19 0.17 0.16 0.15 0.13 0.13 0.16 0.16 0.15 0.14 0.12 0.09 0.07 0.06 0.07 0.09 0.12 0.16 0.22 0.30 0.44 0.67 0.92 1.14 1.33 1.52 1.84 1.99 1.99 2.05 2.00 1.95 1.84 1.84
0.23 0.23 0.21 0.24 0.25 0.25 0.22 0.19 0.19 0.17 0.17 0.15 0.11 0.10 0.10 0.11 0.12 0.12 0.11 0.11 0.10 0.08 0.07 0.06 0.05 0.06 0.07 0.09 0.14 0.21 0.34 0.57 0.88 1.19 1.44 1.64 1.87 2.14 2.23 2.14 2.09 2.12 2.20 2.23
0.26 0.23 0.17 0.18 0.18 0.21 0.25 0.17 0.15 0.15 0.17 0.15 0.12 0.16 0.15 0.15 0.16 0.14 0.13 0.13 0.12 0.11 0.10 0.09 0.06 0.06 0.07 0.10 0.13 0.17 0.32 0.48 0.72 0.99 1.31 1.57 1.83 2.15 2.22 2.20 2.17 2.20 2.32 2.41
0.22 0.19 0.15 0.14 0.14 0.15 0.18 0.12 0.12 0.13 0.14 0.12 0.10 0.16 0.18 0.17 0.20 0.20 0.20 0.21 0.18 0.15 0.15 0.12 0.10 0.10 0.12 0.15 0.18 0.24 0.38 0.53 0.74 0.98 1.30 1.62 1.82 1.99 2.19 2.20 2.11 2.04 2.09 2.11
0.23 0.18 0.13 0.10 0.10 0.11 0.13 0.11 0.09 0.08 0.08 0.08 0.06 0.14 0.23 0.23 0.22 0.20 0.22 0.22 0.17 0.14 0.15 0.17 0.21 0.22 0.22 0.24 0.30 0.38 0.50 0.71 0.87 0.97 1.12 1.29 1.50 1.78 1.92 2.02 2.05 2.06 2.03 1.90
0.17 0.13 0.09 0.08 0.10 0.09 0.08 0.11 0.13 0.12 0.14 0.12 0.10 0.20 0.31 0.27 0.22 0.21 0.22 0.20 0.19 0.21 0.25 0.33 0.43 0.40 0.37 0.40 0.49 0.56 0.63 0.73 0.79 0.78 0.86 1.00 1.16 1.37 1.51 1.61 1.80 1.86 1.89 1.82
0.11 0.08 0.07 0.05 0.04 0.05 0.05 0.07 0.14 0.16 0.18 0.21 0.26 0.40 0.44 0.35 0.28 0.24 0.21 0.19 0.21 0.29 0.39 0.54 0.65 0.70 0.64 0.62 0.64 0.62 0.63 0.60 0.62 0.66 0.73 0.80 0.86 1.00 1.12 1.20 1.36 1.49 1.48 1.44
0.08 0.05 0.04 0.04 0.03 0.04 0.04 0.04 0.07 0.15 0.15 0.21 0.34 0.51 0.51 0.35 0.29 0.27 0.26 0.23 0.29 0.42 0.57 0.73 0.86 0.93 0.87 0.78 0.72 0.68 0.68 0.65 0.58 0.60 0.68 0.75 0.79 0.81 0.84 0.88 0.88 0.97 1.05 1.07
0.10 0.07 0.03 0.02 0.03 0.03 0.04 0.05 0.10 0.22 0.33 0.36 0.39 0.52 0.60 0.49 0.38 0.36 0.38 0.44 0.55 0.73 0.80 0.91 0.98 0.97 0.96 1.00 0.93 0.77 0.71 0.71 0.66 0.73 0.75 0.72 0.70 0.69 0.67 0.71 0.76 0.78 0.86 0.96
0.14 0.12 0.06 0.03 0.04 0.07 0.09 0.13 0.20 0.32 0.42 0.56 0.68 0.82 0.69 0.57 0.56 0.54 0.56 0.72 0.82 0.92 1.00 1.02 1.08 1.01 0.89 0.89 0.87 0.84 0.79 0.73 0.75 0.80 0.80 0.70 0.67 0.67 0.67 0.65 0.67 0.75 0.84 0.94
0.20 0.25 0.15 0.05 0.09 0.14 0.23 0.35 0.45 0.61 0.65 0.63 0.86 1.06 0.78 0.64 0.65 0.66 0.65 0.63 0.65 0.83 0.94 0.98 1.04 0.97 0.81 0.77 0.68 0.71 0.79 0.79 0.85 0.86 0.79 0.71 0.71 0.74 0.79 0.77 0.69 0.71 0.77 0.79
0.28 0.41 0.32 0.16 0.23 0.32 0.39 0.48 0.60 0.73 0.83 0.83 0.92 1.05 0.83 0.62 0.58 0.63 0.72 0.70 0.67 0.71 0.73 0.72 0.73 0.80 0.76 0.72 0.64 0.70 0.76 0.81 0.85 0.86 0.84 0.76 0.66 0.69 0.74 0.75 0.68 0.65 0.70 0.74
0.25 0.40 0.44 0.35 0.36 0.43 0.42 0.39 0.45 0.66 0.89 0.92 0.98 0.95 0.74 0.62 0.56 0.59 0.65 0.71 0.66 0.56 0.52 0.50 0.46 0.52 0.55 0.57 0.62 0.66 0.77 0.89 0.93 0.91 0.85 0.81 0.75 0.78 0.73 0.63 0.61 0.63 0.63 0.60
0.17 0.18 0.20 0.18 0.19 0.25 0.32 0.34 0.43 0.56 0.74 0.97 0.87 0.67 0.55 0.52 0.48 0.50 0.55 0.49 0.43 0.39 0.37 0.35 0.32 0.32 0.34 0.37 0.45 0.52 0.65 0.81 0.93 0.97 0.92 0.85 0.80 0.70 0.63 0.57 0.50 0.52 0.48 0.47
0.23 0.18 0.08 0.07 0.10 0.16 0.28 0.41 0.54 0.60 0.67 0.69 0.60 0.56 0.42 0.36 0.32 0.32 0.37 0.37 0.36 0.31 0.27 0.24 0.24 0.21 0.23 0.29 0.36 0.36 0.48 0.63 0.74 0.79 0.80 0.81 0.77 0.62 0.54 0.48 0.41 0.39 0.41 0.42
0.10 0.13 0.10 0.07 0.09 0.17 0.40 0.53 0.60 0.59 0.54 0.45 0.42 0.37 0.26 0.24 0.17 0.16 0.21 0.25 0.30 0.28 0.23 0.21 0.20 0.21 0.23 0.30 0.31 0.32 0.41 0.52 0.57 0.61 0.64 0.66 0.61 0.49 0.43 0.35 0.31 0.34 0.35 0.38
0.10 0.13 0.17 0.12 0.13 0.34 0.61 0.51 0.45 0.48 0.37 0.22 0.20 0.20 0.19 0.15 0.11 0.08 0.08 0.11 0.13 0.16 0.16 0.21 0.18 0.17 0.19 0.24 0.29 0.37 0.40 0.41 0.41 0.45 0.49 0.47 0.47 0.42 0.35 0.28 0.28 0.30 0.33 0.37
0.17 0.22 0.25 0.22 0.23 0.42 0.57 0.38 0.34 0.39 0.33 0.16 0.11 0.11 0.09 0.07 0.05 0.03 0.02 0.05 0.06 0.06 0.07 0.10 0.09 0.09 0.10 0.10 0.11 0.14 0.17 0.19 0.23 0.30 0.36 0.40 0.40 0.37 0.31 0.27 0.33 0.40 0.40 0.39
0.30 0.32 0.32 0.31 0.37 0.50 0.39 0.15 0.15 0.27 0.38 0.14 0.06 0.05 0.04 0.03 0.04 0.02 0.02 0.04 0.03 0.02 0.02 0.03 0.03 0.03 0.03 0.02 0.02 0.03 0.05 0.09 0.13 0.19 0.24 0.28 0.31 0.34 0.38 0.46 0.54 0.55 0.52 0.46
0.19 0.25 0.31 0.39 0.56 0.57 0.33 0.13 0.15 0.28 0.40 0.18 0.05 0.02 0.01 0.01 0.01 0.00 0.02 0.03 0.02 0.01 0.00 0.00 0.01 0.01 0.00 0.00 0.00 0.00 0.01 0.02 0.02 0.04 0.10 0.18 0.29 0.35 0.44 0.56 0.59 0.58 0.52 0.44
0.18 0.28 0.38 0.50 0.66 0.74 0.38 0.19 0.21 0.19 0.13 0.10 0.04 0.01 0.01 0.00 0.00 0.00 0.01 0.01 0.01 0.01 0.00 0.00 0.00 0.00 0.00 0.00 0.00 0.00 0.00 0.00 0.01 0.03 0.07 0.13 0.20 0.29 0.42 0.51 0.50 0.50 0.49 0.46
0.18 0.33 0.45 0.50 0.56 0.47 0.28 0.16 0.11 0.08 0.08 0.03 0.01 0.01 0.00 0.00 0.00 0.00 0.01 0.01 0.01 0.01 0.00 0.00 0.00 0.00 0.00 0.00 0.00 0.00 0.00 0.00 0.00 0.01 0.02 0.06 0.11 0.22 0.36 0.39 0.39 0.42 0.45 0.44
0.08 0.11 0.18 0.20 0.15 0.14 0.11 0.08 0.04 0.03 0.04 0.01 0.00 0.00 0.00 0.00 0.00 0.00 0.00 0.01 0.00 0.00 0.00 0.00 0.00 0.00 0.00 0.00 0.00 0.00 0.00 0.00 0.00 0.00 0.00 0.01 0.02 0.05 0.10 0.15 0.20 0.26 0.31 0.33
0.09 0.10 0.17 0.20 0.10 0.05 0.04 0.04 0.02 0.02 0.02 0.01 0.00 0.00 0.00 0.00 0.00 0.00 0.00 0.00 0.00 0.00 0.00 0.00 0.00 0.00 0.00 0.00 0.00 0.00 0.00 0.00 0.00 0.00 0.00 0.01 0.02 0.03 0.04 0.06 0.09 0.12 0.15 0.19
0.05 0.12 0.16 0.20 0.12 0.06 0.04 0.03 0.02 0.02 0.01 0.01 0.00 0.00 0.00 0.00 0.00 0.00 0.00 0.00 0.00 0.00 0.00 0.00 0.00 0.00 0.00 0.00 0.00 0.00 0.00 0.00 0.00 0.00 0.00 0.00 0.01 0.01 0.01 0.02 0.03 0.04 0.06 0.09